Cecil Field, FL

7:33 PM EDT on July 20, 2017 (GMT -0400)
Cecil

Weather History for KVQQ - August, 2013

Change the Weather History Date:

Tuesday, August 20, 2013

  Actual Average (KNIP) Record (KNIP)
Temperature  
Mean Temperature 80 °F -  
Max Temperature 89 °F 88 °F 99 °F (2014)
Min Temperature 71 °F 73 °F 71 °F (1999)
Cooling Degree Days 15    
Growing Degree Days 30 (Base 50)    
Moisture  
Dew Point 74 °F    
Average Humidity 91    
Maximum Humidity 100    
Minimum Humidity 62    
Precipitation  
Precipitation 0.06 in - - ()
Sea Level Pressure  
Sea Level Pressure 30.09 in    
Wind  
Wind Speed 1 mph (East)    
Max Wind Speed 13 mph    
Max Gust Speed -    
Visibility 8 miles    
Events Rain    
Averages and records for this station are not official NWS values.
T = Trace of Precipitation, MM = Missing Value Source: NWS Daily Summary

Daily Weather History Graph

Daily Weather History Graph

Search for Another Location

Airport or City:

Trip Planner

Search our weather history database for the weather conditions in past years. The results will help you decide how hot, cold, wet, or windy it might be!

Date:

Astronomy

Aug. 20, 2013 Rise Set
Actual Time 6:57 AM EDT 8:03 PM EDT
Civil Twilight 6:32 AM EDT 8:28 PM EDT
Nautical Twilight 6:03 AM EDT 8:57 PM EDT
Astronomical Twilight 5:32 AM EDT 9:28 PM EDT
Moon 7:38 PM EDT 6:24 AM EDT
Length of Visible Light 13h 55m
Length of Day
13h 05m
Full, 100% of the Moon is Illuminated
Aug 20
Full
Aug 20
Full
Aug 28
Last Quarter
Sep 5
New
Sep 12
First Quarter

Hourly Weather History & Observations

Time (EDT) Temp. Heat Index Dew Point Humidity Pressure Visibility Wind Dir Wind Speed Gust Speed Precip Events Conditions
12:15 AM 73.4 °F - 73.4 °F 100% 30.10 in 10.0 mi Calm Calm - N/A   Overcast
12:35 AM 73.4 °F - 73.4 °F 100% 30.10 in 10.0 mi Calm Calm - N/A   Overcast
12:55 AM 73.4 °F - 73.4 °F 100% 30.09 in 1.5 mi Calm Calm - 0.06 in Rain Light Rain
1:15 AM 73.4 °F - 73.4 °F 100% 30.08 in 9.0 mi Calm Calm - N/A   Scattered Clouds
1:35 AM 73.4 °F - 73.4 °F 100% 30.08 in 10.0 mi Calm Calm - N/A   Mostly Cloudy
1:55 AM 73.4 °F - 73.4 °F 100% 30.07 in 10.0 mi Calm Calm - N/A   Partly Cloudy
2:55 AM 71.6 °F - 71.6 °F 100% 30.05 in 5.0 mi Calm Calm - N/A   Clear
3:15 AM 71.6 °F - 71.6 °F 100% 30.05 in 4.0 mi Calm Calm - N/A   Clear
3:35 AM 71.6 °F - 71.6 °F 100% 30.05 in 5.0 mi Calm Calm - N/A   Clear
3:55 AM 71.6 °F - 71.6 °F 100% 30.04 in 5.0 mi Calm Calm - N/A   Clear
4:15 AM 71.6 °F - 71.6 °F 100% 30.04 in 4.0 mi Calm Calm - N/A   Clear
4:35 AM 71.6 °F - 71.6 °F 100% 30.04 in 5.0 mi Calm Calm - N/A   Clear
4:55 AM 71.6 °F - 71.6 °F 100% 30.04 in 3.0 mi Calm Calm - N/A   Partly Cloudy
5:15 AM 71.6 °F - 71.6 °F 100% 30.04 in 4.0 mi Calm Calm - N/A   Partly Cloudy
5:35 AM 71.6 °F - 71.6 °F 100% 30.04 in 5.0 mi Calm Calm - N/A   Clear
5:55 AM 71.6 °F - 71.6 °F 100% 30.04 in 5.0 mi Calm Calm - N/A   Scattered Clouds
6:15 AM 71.6 °F - 71.6 °F 100% 30.04 in 5.0 mi Calm Calm - N/A   Mostly Cloudy
6:35 AM 71.6 °F - 71.6 °F 100% 30.05 in 5.0 mi Calm Calm - N/A   Overcast
6:50 AM 71.6 °F - 71.6 °F 100% 30.05 in 5.0 mi Calm Calm - N/A   Mostly Cloudy
7:50 AM 73.4 °F - 73.4 °F 100% 30.07 in 5.0 mi North 5.8 mph - N/A   Mostly Cloudy
8:50 AM 75.2 °F - 75.2 °F 100% 30.08 in 7.0 mi NNE 4.6 mph - N/A   Mostly Cloudy
9:50 AM 80.6 °F 88.1 °F 78.8 °F 94% 30.11 in 7.0 mi Calm Calm - N/A   Mostly Cloudy
10:50 AM 84.2 °F 94.1 °F 77.0 °F 79% 30.12 in 7.0 mi Variable 5.8 mph - N/A   Mostly Cloudy
11:50 AM 86.0 °F 95.1 °F 75.2 °F 70% 30.12 in 7.0 mi South 8.1 mph - N/A   Mostly Cloudy
12:50 PM 89.6 °F 99.8 °F 75.2 °F 62% 30.11 in 10.0 mi SE 5.8 mph - N/A   Mostly Cloudy
1:50 PM 86.0 °F 96.9 °F 77.0 °F 74% 30.09 in 10.0 mi Variable 5.8 mph - N/A   Mostly Cloudy
2:50 PM 89.6 °F 99.8 °F 75.2 °F 62% 30.07 in 10.0 mi ESE 11.5 mph - N/A   Mostly Cloudy
3:50 PM 89.6 °F 99.8 °F 75.2 °F 62% 30.04 in 10.0 mi East 9.2 mph - N/A   Scattered Clouds
4:50 PM 89.6 °F 99.8 °F 75.2 °F 62% 30.05 in 10.0 mi East 9.2 mph - N/A   Mostly Cloudy
5:50 PM 86.0 °F 93.4 °F 73.4 °F 66% 30.06 in 10.0 mi East 12.7 mph - N/A   Scattered Clouds
7:50 PM 82.4 °F 88.2 °F 73.4 °F 74% 30.09 in 10.0 mi Variable 4.6 mph - N/A   Partly Cloudy
8:15 PM 80.6 °F 85.4 °F 73.4 °F 79% 30.10 in 10.0 mi East 3.5 mph - N/A   Clear
8:35 PM 80.6 °F 86.2 °F 75.2 °F 84% 30.11 in 10.0 mi East 3.5 mph - N/A   Clear
8:55 PM 80.6 °F 86.2 °F 75.2 °F 84% 30.11 in 10.0 mi Calm Calm - N/A   Clear
9:15 PM 80.6 °F 86.2 °F 75.2 °F 84% 30.12 in 10.0 mi Calm Calm - N/A   Clear
9:35 PM 78.8 °F - 75.2 °F 89% 30.13 in 10.0 mi Calm Calm - N/A   Clear
9:55 PM 77.0 °F - 75.2 °F 94% 30.14 in 10.0 mi Calm Calm - N/A   Clear
10:15 PM 75.2 °F - 75.2 °F 100% 30.14 in 10.0 mi Calm Calm - N/A   Clear
10:35 PM 75.2 °F - 75.2 °F 100% 30.15 in 10.0 mi Calm Calm - N/A   Clear
10:55 PM 75.2 °F - 75.2 °F 100% 30.15 in 9.0 mi Calm Calm - N/A   Clear
11:15 PM 75.2 °F - 75.2 °F 100% 30.14 in 8.0 mi Calm Calm - N/A   Clear
11:35 PM 73.4 °F - 73.4 °F 100% 30.15 in 7.0 mi Calm Calm - N/A   Clear
11:55 PM 73.4 °F - 73.4 °F 100% 30.14 in 8.0 mi Calm Calm - N/A   Clear